• In Portugal
  • List of Countries
  • For 7 days
  • Water Temperature
  • Satellite Maps
  • Weather Map
  • Weather Widgets
  • user-avatar
    Login

    Hourly Weather Dori

    Today, 23 August, Wednesday

    Time Temperature Precipitation Wind Pressure Humidity
    00:00 +30°C° 0 mm 3 mps 734 mmHg 59%
    01:00 +30°C° 0 mm 4 mps 733 mmHg 62%
    02:00 +30°C° 0 mm 5 mps 733 mmHg 65%
    03:00 +29°C° 0 mm 6 mps 732 mmHg 67%
    04:00 +29°C° 0 mm 6 mps 733 mmHg 69%
    05:00 +29°C° 0 mm 6 mps 733 mmHg 71%
    06:00 +28°C° 0 mm 6 mps 733 mmHg 72%
    07:00 +29°C° 0 mm 5 mps 733 mmHg 68%
    08:00 +30°C° 0 mm 4 mps 734 mmHg 64%
    09:00 +31°C° 0 mm 3 mps 735 mmHg 60%
    10:00 +31°C° 0 mm 3 mps 735 mmHg 58%
    11:00 +33°C° 0 mm 3 mps 735 mmHg 56%
    12:00 +33°C° 0 mm 3 mps 735 mmHg 53%
    13:00 +34°C° 0 mm 3 mps 734 mmHg 51%
    14:00 +34°C° 0 mm 3 mps 733 mmHg 48%
    15:00 +35°C° 0 mm 2 mps 732 mmHg 45%
    16:00 +35°C° 0 mm 3 mps 732 mmHg 46%
    17:00 +35°C° 0 mm 3 mps 732 mmHg 46%
    18:00 +35°C° 0 mm 3 mps 732 mmHg 47%
    19:00 +34°C° 0 mm 3 mps 733 mmHg 49%
    20:00 +34°C° 0 mm 4 mps 733 mmHg 51%
    21:00 +33°C° 0 mm 4 mps 734 mmHg 53%
    22:00 +33°C° 0.7 mm 5 mps 733 mmHg 57%
    23:00 +32°C° 0.7 mm 5 mps 733 mmHg 61%

    Tomorrow, 24 August, Thursday

    Time Temperature Precipitation Wind Pressure Humidity
    00:00 +30°C° 0.7 mm 5 mps 733 mmHg 65%
    01:00 +30°C° 1.8 mm 5 mps 732 mmHg 68%
    02:00 +29°C° 1.8 mm 4 mps 732 mmHg 70%
    03:00 +28°C° 1.8 mm 4 mps 732 mmHg 73%
    04:00 +28°C° 4.7 mm 4 mps 732 mmHg 75%
    05:00 +28°C° 4.7 mm 4 mps 733 mmHg 76%
    06:00 +27°C° 4.7 mm 4 mps 733 mmHg 78%
    07:00 +27°C° 2.6 mm 4 mps 734 mmHg 78%
    08:00 +27°C° 2.6 mm 4 mps 734 mmHg 78%
    09:00 +27°C° 2.6 mm 4 mps 734 mmHg 78%
    10:00 +28°C° 0.4 mm 4 mps 734 mmHg 74%
    11:00 +29°C° 0.4 mm 4 mps 734 mmHg 69%
    12:00 +30°C° 0.4 mm 4 mps 734 mmHg 65%
    13:00 +30°C° 0.2 mm 4 mps 733 mmHg 64%
    14:00 +30°C° 0.2 mm 4 mps 733 mmHg 63%
    15:00 +30°C° 0.2 mm 3 mps 732 mmHg 63%
    16:00 +30°C° 0 mm 3 mps 732 mmHg 63%
    17:00 +30°C° 0 mm 2 mps 732 mmHg 63%
    18:00 +30°C° 0 mm 2 mps 732 mmHg 63%
    19:00 +30°C° 0 mm 2 mps 733 mmHg 64%
    20:00 +30°C° 0 mm 1 mps 733 mmHg 66%
    21:00 +29°C° 0 mm 1 mps 734 mmHg 68%
    22:00 +29°C° 0 mm 1 mps 734 mmHg 70%
    23:00 +29°C° 0 mm 1 mps 733 mmHg 71%

    Day after tomorrow, 25 August, Friday

    Time Temperature Precipitation Wind Pressure Humidity
    00:00 +28°C° 0 mm 1 mps 733 mmHg 72%
    01:00 +28°C° 0 mm 1 mps 733 mmHg 73%
    02:00 +28°C° 0 mm 2 mps 733 mmHg 74%
    03:00 +28°C° 0 mm 2 mps 732 mmHg 75%
    04:00 +28°C° 0 mm 2 mps 733 mmHg 77%
    05:00 +27°C° 0 mm 2 mps 733 mmHg 79%
    06:00 +27°C° 0 mm 3 mps 734 mmHg 80%
    07:00 +28°C° 1 mm 3 mps 734 mmHg 75%
    08:00 +29°C° 1 mm 3 mps 735 mmHg 70%
    09:00 +30°C° 1 mm 3 mps 735 mmHg 65%
    10:00 +31°C° 0.3 mm 3 mps 735 mmHg 59%
    11:00 +34°C° 0.3 mm 4 mps 734 mmHg 53%
    12:00 +35°C° 0.3 mm 4 mps 734 mmHg 47%
    13:00 +35°C° 0 mm 4 mps 733 mmHg 45%
    14:00 +36°C° 0 mm 4 mps 732 mmHg 43%
    15:00 +37°C° 0 mm 4 mps 732 mmHg 41%
    16:00 +36°C° 0 mm 4 mps 732 mmHg 42%
    17:00 +36°C° 0 mm 3 mps 732 mmHg 44%
    18:00 +36°C° 0 mm 3 mps 732 mmHg 45%
    19:00 +35°C° 0 mm 3 mps 733 mmHg 47%
    20:00 +35°C° 0 mm 2 mps 733 mmHg 50%
    21:00 +34°C° 0 mm 2 mps 734 mmHg 52%
    22:00 +34°C° 0 mm 2 mps 734 mmHg 54%
    23:00 +33°C° 0 mm 3 mps 734 mmHg 55%

    26 August, Saturday

    Time Temperature Precipitation Wind Pressure Humidity
    00:00 +33°C° 0 mm 3 mps 734 mmHg 57%
    01:00 +31°C° 0 mm 3 mps 733 mmHg 59%
    02:00 +31°C° 0 mm 3 mps 733 mmHg 61%
    03:00 +30°C° 0 mm 4 mps 732 mmHg 63%
    04:00 +30°C° 0 mm 4 mps 732 mmHg 65%
    05:00 +30°C° 0 mm 4 mps 732 mmHg 66%
    06:00 +29°C° 0 mm 4 mps 733 mmHg 68%
    07:00 +32°C° 0 mm 4 mps 733 mmHg 64%
    08:00 +33°C° 0 mm 5 mps 734 mmHg 60%
    09:00 +34°C° 0 mm 5 mps 734 mmHg 56%
    10:00 +35°C° 0 mm 5 mps 734 mmHg 51%
    11:00 +36°C° 0 mm 4 mps 734 mmHg 47%
    12:00 +37°C° 0 mm 4 mps 734 mmHg 43%
    13:00 +37°C° 0 mm 4 mps 733 mmHg 41%
    14:00 +38°C° 0 mm 4 mps 733 mmHg 40%
    15:00 +38°C° 0 mm 3 mps 733 mmHg 38%
    16:00 +38°C° 0 mm 4 mps 732 mmHg 40%
    17:00 +37°C° 0 mm 4 mps 732 mmHg 41%
    18:00 +37°C° 0 mm 4 mps 732 mmHg 43%
    19:00 +36°C° 0.7 mm 4 mps 732 mmHg 46%
    20:00 +35°C° 0.7 mm 5 mps 733 mmHg 49%
    21:00 +34°C° 0.7 mm 5 mps 733 mmHg 52%
    22:00 +33°C° 1.7 mm 5 mps 733 mmHg 55%
    23:00 +33°C° 1.7 mm 6 mps 733 mmHg 58%

    27 August, Sunday

    Time Temperature Precipitation Wind Pressure Humidity
    00:00 +32°C° 1.7 mm 6 mps 733 mmHg 61%
    01:00 +32°C° 0 mm 5 mps 733 mmHg 61%
    02:00 +32°C° 0 mm 5 mps 733 mmHg 62%
    03:00 +30°C° 0 mm 4 mps 732 mmHg 62%
    04:00 +30°C° 0 mm 4 mps 733 mmHg 63%
    05:00 +30°C° 0 mm 4 mps 733 mmHg 64%
    06:00 +30°C° 0 mm 4 mps 734 mmHg 64%
    07:00 +32°C° 0 mm 4 mps 734 mmHg 61%
    08:00 +33°C° 0 mm 5 mps 735 mmHg 57%
    09:00 +34°C° 0 mm 5 mps 735 mmHg 53%
    10:00 +36°C° 0 mm 5 mps 735 mmHg 48%
    11:00 +37°C° 0 mm 5 mps 734 mmHg 44%
    12:00 +39°C° 0 mm 5 mps 734 mmHg 39%
    13:00 +40°C° 0 mm 5 mps 733 mmHg 37%
    14:00 +40°C° 0 mm 5 mps 732 mmHg 35%
    15:00 +41°C° 0 mm 4 mps 732 mmHg 33%
    16:00 +40°C° 0 mm 4 mps 732 mmHg 35%
    17:00 +40°C° 0 mm 4 mps 732 mmHg 36%
    18:00 +38°C° 0 mm 3 mps 732 mmHg 37%
    19:00 +38°C° 0 mm 4 mps 732 mmHg 41%
    20:00 +37°C° 0 mm 5 mps 732 mmHg 44%
    21:00 +36°C° 0 mm 5 mps 733 mmHg 48%
    22:00 +35°C° 0 mm 6 mps 733 mmHg 50%
    23:00 +34°C° 0 mm 6 mps 733 mmHg 53%

    28 August, Monday

    Time Temperature Precipitation Wind Pressure Humidity
    00:00 +34°C° 0 mm 7 mps 733 mmHg 56%
    01:00 +33°C° 0 mm 7 mps 732 mmHg 58%
    02:00 +33°C° 0 mm 7 mps 732 mmHg 60%
    03:00 +32°C° 0 mm 7 mps 732 mmHg 62%
    04:00 +32°C° 0.2 mm 7 mps 733 mmHg 65%
    05:00 +30°C° 0.2 mm 7 mps 733 mmHg 67%
    06:00 +30°C° 0.2 mm 7 mps 734 mmHg 69%
    07:00 +32°C° 0 mm 7 mps 734 mmHg 65%
    08:00 +32°C° 0 mm 7 mps 734 mmHg 61%
    09:00 +33°C° 0 mm 7 mps 735 mmHg 58%
    10:00 +35°C° 0 mm 7 mps 734 mmHg 53%
    11:00 +36°C° 0 mm 7 mps 734 mmHg 48%
    12:00 +39°C° 0 mm 6 mps 733 mmHg 43%
    13:00 +39°C° 0 mm 6 mps 733 mmHg 41%
    14:00 +40°C° 0 mm 6 mps 732 mmHg 39%
    15:00 +41°C° 0 mm 6 mps 732 mmHg 36%
    16:00 +40°C° 0 mm 5 mps 732 mmHg 37%
    17:00 +40°C° 0 mm 4 mps 732 mmHg 38%
    18:00 +38°C° 0 mm 3 mps 732 mmHg 39%
    19:00 +38°C° 0 mm 4 mps 732 mmHg 42%
    20:00 +37°C° 0 mm 5 mps 733 mmHg 45%
    21:00 +36°C° 0 mm 6 mps 733 mmHg 47%
    22:00 +35°C° 0.1 mm 6 mps 733 mmHg 53%
    23:00 +34°C° 0.1 mm 7 mps 733 mmHg 58%
    Show more